Flag for China Weather past 2 weeks in Tianjin, China

Now
64 °F

Haze.


Feels Like: 64 °F
Forecast: 60 / 83 °F
Wind: 6 mph from Southwest

Location: Tianjin / Zhangguizhu


UV Index: 5 (Moderate)

Visibility: 3 mi


Pressure: 29.95 "Hg

Humidity: 60%

Dew point: 50 °F

Location of TianjinLocation

Historic Weather in Tianjin

°F

Tianjin temperature yesterday

Maximum temperature yesterday: 79 °F (at 2:00 PM)
Minimum temperature yesterday: 59 °F (at 5:30 AM)
Average temperature yesterday: 69 °F

Past Weeks' High & Low Weather Summary

 TemperatureHumidityPressure
High86 °F (Apr 9, 3:00 PM)94% (Apr 13, 3:00 AM)30.24 "Hg (Apr 13, 3:00 AM)
Low46 °F (Apr 12, 5:00 AM)9% (Apr 16, 5:00 PM)29.77 "Hg (Apr 9, 1:00 PM)
Average61 °F49%30.02 "Hg
* Reported Apr 8 11:00 PM — Apr 23 11:30 PM, Tianjin, Weather by CustomWeather, © 2014

Note: Actual official high and low records may vary slightly from our data, if they occured in-between our weather recording intervals... More about our weather records

Advertising

Historic Weather Conditions — Data for Previous 24 hours

 ConditionsComfort  
Time TempWeatherWind HumidityBarometerVisibility
11:30 PM
Apr 23
64 °FHaze.6 mph60%29.95 "Hg3 mi
11:00 PM66 °FHaze.3 mph56%29.95 "Hg3 mi
10:30 PM68 °FHaze.6 mph53%29.92 "Hg3 mi
10:00 PM68 °FClear.6 mph49%29.92 "Hg4 mi
9:30 PM68 °FClear.8 mph49%29.89 "Hg4 mi
9:00 PM70 °FClear.6 mph46%29.89 "Hg4 mi
8:30 PM70 °FClear.10 mph46%29.86 "Hg4 mi
8:00 PM70 °FClear.13 mph46%29.86 "Hg4 mi
7:30 PM72 °FClear.13 mph44%29.83 "Hg4 mi
7:00 PM72 °FClear.13 mph44%29.80 "Hg4 mi
6:30 PM73 °FClear.15 mph44%29.80 "Hg4 mi
6:00 PM75 °FClear.13 mph41%29.77 "Hg4 mi
5:30 PM75 °FClear.15 mph41%29.77 "Hg4 mi
5:00 PM75 °FClear.13 mph41%29.77 "Hg4 mi
4:30 PM77 °FClear.15 mph36%29.77 "Hg4 mi
4:00 PM77 °FScattered clouds.15 mph36%29.77 "Hg4 mi
3:30 PM77 °FScattered clouds.13 mph39%29.80 "Hg4 mi
3:00 PM79 °FClear.15 mph37%29.80 "Hg4 mi
2:30 PM79 °FClear.15 mph37%29.80 "Hg4 mi
2:00 PM79 °FClear.13 mph37%29.80 "Hg4 mi
1:30 PM77 °FHaze.17 mph39%29.83 "Hg3 mi
1:00 PM77 °FHaze.13 mph42%29.83 "Hg3 mi
12:30 PM75 °FHaze.13 mph44%29.83 "Hg3 mi
12:00 PM75 °FHaze.13 mph44%29.86 "Hg3 mi
11:30 AM73 °FHaze.8 mph47%29.86 "Hg2 mi
11:00 AM72 °FHaze.10 mph50%29.89 "Hg2 mi
10:30 AM72 °FHaze.13 mph53%29.89 "Hg2 mi
10:00 AM70 °FHaze.13 mph57%29.89 "Hg2 mi
9:30 AM68 °FHaze.10 mph60%29.89 "Hg2 mi
9:00 AM66 °FHaze.10 mph64%29.89 "Hg1 mi
8:30 AM64 °FHaze.13 mph68%29.92 "Hg1 mi
8:00 AM63 °FFog.13 mph73%29.92 "Hg1 mi
7:30 AM63 °FFog.8 mph73%29.92 "Hg1 mi
7:00 AM61 °FFog.8 mph77%29.92 "Hg1 mi
6:30 AM61 °FFog.8 mph77%29.92 "Hg1 mi
6:00 AM59 °FFog.8 mph77%29.89 "Hg1 mi
5:30 AM59 °FFog.6 mph77%29.89 "Hg1 mi
5:00 AM61 °FFog.6 mph72%29.89 "Hg1 mi
4:30 AM61 °FHaze.8 mph72%29.89 "Hg1 mi
4:00 AM63 °FHaze.8 mph68%29.89 "Hg1 mi
3:30 AM63 °FHaze.8 mph68%29.89 "Hg1 mi
3:00 AM64 °FHaze.8 mph64%29.89 "Hg2 mi
2:30 AM64 °FHaze.8 mph64%29.89 "Hg2 mi
2:00 AM64 °FHaze.6 mph64%29.89 "Hg2 mi
1:30 AM66 °FHaze.8 mph60%29.89 "Hg3 mi
1:00 AM66 °FHaze.8 mph56%29.92 "Hg3 mi
12:30 AM68 °FHaze.10 mph53%29.92 "Hg3 mi
12:00 AM68 °FClear.13 mph53%29.92 "Hg4 mi
Weather by CustomWeather, © 2014

See weather overview